Regional Weather Roundup
Issued by NWS Wakefield, VA

Home | Current Version | Previous Version | Graphics & Text | Print | Product List | Glossary On
Versions: 1 2 3 4 5 6 7 8 9 10 11 12 13 14 15 16 17 18 19 20 21 22 23 24 25 26 27 28 29 30 31 32 33 34 35 36 37 38 39 40 41 42 43 44 45 46 47 48 49 50
018
ASUS41 KAKQ 271314
RWRAKQ

REGIONAL WEATHER ROUNDUP
NATIONAL WEATHER SERVICE WAKEFIELD VA
800 AM EST MON FEB 27 2017

Note: "fair" indicates few or no clouds below 12,000 feet with no
significant weather and/or obstructions to visibility. * = Denotes
station may not report precipitation (e.g., rain,snow,etc.),
thunder or fog.

VAZ042-051-052>054-056-271400-
NORTHERN VIRGINIA

CITY           SKY/WX    TMP DP  RH WIND       PRES   REMARKS
WASH NATIONAL  CLOUDY    40  35  83 SW5       30.43R
DULLES         CLOUDY    33  26  75 CALM      30.41R
FORT BELVOIR   CLOUDY    34  29  83 CALM      30.42R
QUANTICO       CLOUDY    38  32  79 CALM      30.43S
FREDERICKSBRG* CLOUDY    32  31  94 CALM      30.43R
STAFFORD*      MOSUNNY   31  31 100 CALM      30.46R
WARRENTON      CLOUDY    32  25  76 CALM      30.41R
CULPEPER*      CLOUDY    32  28  84 CALM      30.43R
MANASSAS*      CLOUDY    31  27  85 CALM      30.42S
LEESBURG*      CLOUDY    32  30  93 MISG      30.41R
WINCHESTER     CLOUDY    34  18  51 SW7       30.37R
FRONT ROYAL*   NOT AVBL
LURAY*         CLOUDY    32  25  74 S3        30.39
$$

VAZ048-049-060>072-079>083-271400-
CENTRAL AND SOUTH CENTRAL VIRGINIA

CITY           SKY/WX    TMP DP  RH WIND       PRES   REMARKS
RICHMOND       CLOUDY    37  32  82 CALM      30.44R
CHESTERFIELD*  CLOUDY    37  18  44 SW5       30.46R
PETERSBURG*    CLOUDY    34  29  85 CALM      30.46R
HANOVER        CLOUDY    36  30  79 SW5       30.46R
TAPPAHANNOCK*  CLOUDY    37  31  78 CALM      30.43R
QUINTON*       NOT AVBL
CHARLOTTSVILLE CLOUDY    33  23  66 CALM      30.40R
GORDONSVILLE*  SUNNY     32  28  86 CALM      30.41R
ORANGE*        CLOUDY    32  27  80 CALM      30.43R
LOUISA*        PTSUNNY   36  30  80 CALM      30.41R
BUMPASS*       NOT AVBL
FARMVILLE*     CLOUDY    32  28  86 CALM      30.41S
CREWE*         FAIR      34  34 100 CALM      30.44R
FORT PICKETT*  NOT AVBL
CHASE CITY*    FAIR      37  34  89 CALM      30.42R
CLARKSVILLE*   FAIR      37  28  70 CALM      30.41R
SOUTH HILL*    CLOUDY    37  31  81 CALM      30.48R
LAWRENCEVILLE* FAIR      38  28  66 S3        30.43R
EMPORIA*       CLOUDY    34  30  86 CALM      30.46R
$$

VAZ088>098-271400-
SOUTHEAST VIRGINIA

CITY           SKY/WX    TMP DP  RH WIND       PRES   REMARKS
NORFOLK        CLOUDY    46  40  79 S6        30.43R
VIRGINIA BEACH CLOUDY    45  40  82 SE5       30.44R
NORFOLK NAVAL  PTSUNNY   47  40  76 SE6       30.44R
WEST POINT*    CLOUDY    38  37  97 CALM      30.45R
SALUDA*        FAIR      41  39  93 S3        30.42R
NEWPORT NEWS   SUNNY     42  40  92 CALM      30.44R
LANGLEY AFB    MOSUNNY   46  42  87 S3        30.43R
FORT EUSTIS    CLOUDY    46  41  83 SE5       30.41R
WILLIAMSBURG*  SUNNY     46  43  87 CALM      30.44R
HR EXEC AP*    NOT AVBL
FRANKLIN*      SUNNY     36  34  92 CALM      30.46R
US460-WAKEFLD  MOSUNNY   38  35  89 SW3       30.45R
$$

VAZ020-022-025-037-045-271400-
WEST CENTRAL AND SOUTHWEST VIRGINIA

CITY           SKY/WX    TMP DP  RH WIND       PRES   REMARKS
STAUNTON*      CLOUDY    26  22  82 CALM      30.41R
WAYNESBORO*    CLOUDY    30  19  63 CALM      30.37R
HOT SPRINGS VA CLOUDY    36   9  32 W7        30.29S
LYNCHBURG      CLOUDY    37  26  64 N3        30.39F
DANVILLE       CLOUDY    33  31  92 CALM      30.42R
SOUTH BOSTON*  NOT AVBL
MARTINSVILLE   MOSUNNY   34  26  71 CALM      30.42R
ROANOKE        CLOUDY    35  22  58 CALM      30.40R
BLACKSBURG     PTSUNNY   32  24  71 CALM      30.38R
DUBLIN*        CLOUDY    32  25  74 CALM      30.35S
MARION*        CLOUDY    35  20  55 E6        30.35R
HILLSVILLE*    CLOUDY    36  22  57 CALM      30.32R
RICHLANDS*     FAIR      41  26  56 CALM      30.31R
WISE*          CLOUDY    37  23  56 CALM      30.30R
ABINGDON*      MOSUNNY   41  19  41 E3        30.30S
$$

MDZ021>025-VAZ099-100-271400-
SOUTHERN MARYLAND AND THE DELMARVA PENINSULA

CITY           SKY/WX    TMP DP  RH WIND       PRES   REMARKS
PATUXENT RIVER PTSUNNY   42  39  89 S3        30.42R
BAY BRIDGE APT CLOUDY    43  39  87 S12       30.42S
LEONARDTOWN    PTSUNNY   39  34  81 S3        30.44R
DOVER          MOSUNNY   36  36  99 S6        30.43R
GEORGETOWN     SUNNY     35  31  85 CALM      30.46R
EASTON         PTSUNNY   39  32  75 SE6       30.46R
CAMBRIDGE      SUNNY     39  37  93 SE6       30.43S
SALISBURY      SUNNY     37  33  85 CALM      30.44R
OCEAN CITY     SUNNY     45  37  73 VRB5      30.46R
WALLOPS ISLAND SUNNY     45  37  73 S9        30.46R
ACCOMACK*      MOSUNNY   44  40  85 SE8       30.45R
$$

NCZ012>017-030>032-271400-
NORTH CENTRAL AND EASTERN NORTH CAROLINA

CITY           SKY/WX    TMP DP  RH WIND       PRES   REMARKS
ROANOKE RAPIDS FAIR      34  32  93 CALM      30.44R
RALEIGH        CLOUDY    43  25  49 SW3       30.41R
ELIZABETH CITY SUNNY     49  42  77 SE7       30.43S
AHOSKIE*         N/A     38  32  79 CALM      30.45R
EDENTON*       MOSUNNY   46  42  84 SE3       30.44S
CURRITUCK*     SUNNY     44  43  97 SE3       30.45R
KILL DEVIL HLS NOT AVBL
MANTEO         SUNNY     46  44  93 SE3       30.45R
CAPE HATTERAS  SUNNY     54  34  46 NE5       30.44R
TARBORO*       NOT AVBL
GOLDSBORO      MOSUNNY   43  33  69 CALM      30.42R
WASHINGTON     MOSUNNY   42  37  82 CALM      30.42R
GREENVILLE     MOSUNNY   39  36  87 CALM      30.44R
NEW BERN       SUNNY     40  38  93 SE3       30.42S
WILMINGTON     CLOUDY    46  42  86 CALM      30.39R
$$

VAZ048-271400-
ELSEWHERE

CITY           SKY/WX    TMP DP  RH WIND       PRES   REMARKS
HARRISBURG PA  CLOUDY    33  25  72 E6        30.39R
BALTIMORE      PTSUNNY   31  28  89 W3        30.41R
ANNAPOLIS      CLOUDY    45  40  82 SE8       30.41R
ANDREWS AFB    CLOUDY    39  35  85 SW8       30.41R
PHILADELPHIA   PTSUNNY   37  26  64 SW7       30.43R
HENDERSON NC   CLOUDY    38  22  52 S5        30.40S
GREENSBORO     CLOUDY    36  28  73 CALM      30.38R
ROCKY MOUNT    MOSUNNY   38  35  89 CALM      30.44R
$$

VAZ100-271400-
MARINE

STATION/POSITION TIME  TEMP    WIND        PRES    WAVE   SWELL
                       AIR SEA DIR/SP/G            HT/PER HT/PER
                 (UTC) (F)     (DEG/KT/KT) (MB)    (FT/S) (FT/S)
CAPE MAY NJ      1248   43 44  170/  3/  4 1030.9R
LEWES DE         1248   41 45  190/  2/  3 1031.0R
OCEAN-CITY-INLET 1248   45 44  190/  7/  9 1031.7R
WACHAPREAGUE VA  1248   46 50  170/  7/  9 1031.1R
THOMAS POINT MD  1300   44 44  170/ 14/ 15   N/A
GOOSES REEF MD   1300   44 44  190/ 12/ 14 1030.5    1/ 3
COVE POINT MD    1248   42     200/  9/ 11 1030.8R
SOLOMONS ISLAND  1248   42 45  150/  2/  3   N/A
BISHOPS HEAD MD  1248   45 45  160/ 13/ 15 1030.7R
PINEY POINT MD   1248          190/  6/  6   N/A
POTOMAC MD       1300   44 45  210/  6/  8 1029.8    1
CAMBRIDGE MD     1248   41 47  150/  5/  8 1029.7R
LEWISETTA VA     1248   41 48  220/  6/  7 1030.1R
RAPPAHANNOCK LGT 1248          140/  8/  9 1031.4R
YORK RVR RNG VA  1248   46     160/  6/  7 1029.7R
YORKTOWN VA      1248   44 49  160/  4/  5 1030.0R
JAMESTOWN VA     1300   45 53  110/  6/  6   N/A     0
DOMINION TERM VA 1248   46     160/  7/  9 1030.4R
KIPTOPEKE VA     1248      49  150/  6/  8   N/A
CHES BAY BRIDGE  1248   46 49  170/  8/  9 1030.5R
CAPE HENRY VA    1248   47     150/  8/ 10   N/A
WILLOUBY STN VA  1248   47     160/  9/ 10 1031.1R
S CRANEY ISL VA  1248   48     170/  7/  9 1030.3R
CAPE HENRY BUOY  1242      48                N/A     2/ 9
OFFSHORE WE BUOY 1251      48                N/A     2/ 9
64NM E OF VA BCH 1250   50 48   90/  6/  8 1031.0R   3/ 8   3/ 8
DUCK PIER NC     1248   49 49  120/  6/  8 1030.9R
44100 DUCK FRF   1205      49                N/A     2/ 9
44056 DUCK FRF   1230      49                N/A     2/ 9
OREGON INLET NC  1242   51 55   60/  4/  6 1031.0R
HATTERAS NC      1248   54 60   60/  3/  4 1030.4R
DIAMOND SHLS NC  1250   60 71   50/  4/  8 1031.1R   3/ 8   3/ 8
CAPE LOOKOUT NC  1200   56      20/  7/  7 1029.7R
$$




USA.gov is the U.S. government's official web portal to all federal, state and local government web resources and services.